| time (UTC) | temp F | wind direction | speed MPH | gust MPH | rain 1hr in | rain 24hr in | rain mn in | humidity % | barometer mb |
| 20260503041039 | 55 | 360 | 3.0 | 5.0 | 0.00 | 0.00 | 0.00 | 45 | 1015.8 |
| 20260503040538 | 55 | 360 | 3.0 | 5.0 | 0.00 | 0.00 | 0.00 | 44 | 1015.7 |
| 20260503040058 | 56 | 360 | 3.0 | 5.0 | 0.00 | 0.00 | 0.00 | 44 | 1015.7 |
| 20260503035537 | 56 | 360 | 3.0 | 5.0 | 0.00 | 0.00 | 0.00 | 44 | 1015.8 |
| 20260503035037 | 57 | 360 | 3.0 | 5.0 | 0.00 | 0.00 | 0.00 | 43 | 1015.7 |
| 20260503034605 | 57 | 360 | 2.0 | 4.0 | 0.00 | 0.00 | 0.00 | 45 | 1015.7 |
| 20260503034037 | 58 | 360 | 2.0 | 4.0 | 0.00 | 0.00 | 0.00 | 44 | 1015.6 |
| 20260503033537 | 58 | 360 | 2.0 | 4.0 | 0.00 | 0.00 | 0.00 | 42 | 1015.7 |
| 20260503033053 | 58 | 360 | 2.0 | 4.0 | 0.00 | 0.00 | 0.00 | 40 | 1015.7 |
| 20260503032537 | 59 | 360 | 2.0 | 4.0 | 0.00 | 0.00 | 0.00 | 38 | 1015.6 |
| 20260503032037 | 59 | 360 | 2.0 | 5.0 | 0.00 | 0.00 | 0.00 | 37 | 1015.6 |
| 20260503031552 | 59 | 360 | 3.0 | 5.0 | 0.00 | 0.00 | 0.00 | 39 | 1015.5 |
| 20260503031039 | 60 | 360 | 3.0 | 5.0 | 0.00 | 0.00 | 0.00 | 38 | 1015.5 |
| 20260503030538 | 60 | 360 | 3.0 | 5.0 | 0.00 | 0.00 | 0.00 | 37 | 1015.6 |
| 20260503030054 | 60 | 360 | 3.0 | 5.0 | 0.00 | 0.00 | 0.00 | 36 | 1015.5 |
| 20260503025538 | 60 | 360 | 2.0 | 4.0 | 0.00 | 0.00 | 0.00 | 37 | 1015.6 |
| 20260503025037 | 61 | 360 | 2.0 | 4.0 | 0.00 | 0.00 | 0.00 | 37 | 1015.5 |
| 20260503024554 | 61 | 360 | 3.0 | 6.0 | 0.00 | 0.00 | 0.00 | 38 | 1015.6 |
| 20260503024039 | 62 | 350 | 3.0 | 6.0 | 0.00 | 0.00 | 0.00 | 35 | 1015.5 |
| 20260503023539 | 62 | 325 | 3.0 | 6.0 | 0.00 | 0.00 | 0.00 | 35 | 1015.5 |
| 20260503023056 | 62 | 355 | 4.0 | 6.0 | 0.00 | 0.00 | 0.00 | 33 | 1015.5 |
| 20260503022537 | 63 | 352 | 4.0 | 6.0 | 0.00 | 0.00 | 0.00 | 34 | 1015.5 |
| 20260503022040 | 64 | 352 | 4.0 | 9.0 | 0.00 | 0.00 | 0.00 | 35 | 1015.5 |
| 20260503021549 | 65 | 341 | 3.0 | 9.0 | 0.00 | 0.00 | 0.00 | 35 | 1015.5 |
| 20260503021040 | 66 | 348 | 4.0 | 6.0 | 0.00 | 0.00 | 0.00 | 35 | 1015.5 |
| 20260503020537 | 67 | 360 | 2.0 | 5.0 | 0.00 | 0.00 | 0.00 | 33 | 1015.4 |
| 20260503020049 | 68 | 0 | 2.0 | 5.0 | 0.00 | 0.00 | 0.00 | 29 | 1015.5 |
| 20260503015540 | 68 | 308 | 2.0 | 6.0 | 0.00 | 0.00 | 0.00 | 30 | 1015.4 |
| 20260503015037 | 69 | 331 | 1.0 | 6.0 | 0.00 | 0.00 | 0.00 | 32 | 1015.4 |
| 20260503014554 | 69 | 343 | 2.0 | 6.0 | 0.00 | 0.00 | 0.00 | 29 | 1015.4 |
| 20260503014042 | 70 | 315 | 3.0 | 8.0 | 0.00 | 0.00 | 0.00 | 26 | 1015.4 |
| 20260503013538 | 70 | 323 | 3.0 | 8.0 | 0.00 | 0.00 | 0.00 | 28 | 1015.4 |
| 20260503013056 | 70 | 329 | 4.0 | 8.0 | 0.00 | 0.00 | 0.00 | 26 | 1015.4 |
| 20260503012538 | 71 | 315 | 3.0 | 8.0 | 0.00 | 0.00 | 0.00 | 25 | 1015.4 |
| 20260503012038 | 71 | 355 | 4.0 | 8.0 | 0.00 | 0.00 | 0.00 | 26 | 1015.5 |
| 20260503011548 | 71 | 315 | 3.0 | 7.0 | 0.00 | 0.00 | 0.00 | 25 | 1015.6 |
| 20260503011038 | 71 | 315 | 4.0 | 9.0 | 0.00 | 0.00 | 0.00 | 25 | 1015.6 |
| 20260503010540 | 71 | 329 | 3.0 | 9.0 | 0.00 | 0.00 | 0.00 | 26 | 1015.5 |
| 20260503010050 | 72 | 323 | 5.0 | 9.0 | 0.00 | 0.00 | 0.00 | 24 | 1015.6 |
| 20260503005539 | 72 | 338 | 4.0 | 9.0 | 0.00 | 0.00 | 0.00 | 23 | 1015.6 |
| 20260503005042 | 72 | 266 | 4.0 | 9.0 | 0.00 | 0.00 | 0.00 | 23 | 1015.6 |
| 20260503004549 | 72 | 283 | 5.0 | 9.0 | 0.00 | 0.00 | 0.00 | 23 | 1015.6 |
| 20260503004036 | 72 | 253 | 2.0 | 11.0 | 0.00 | 0.00 | 0.00 | 23 | 1015.6 |
| 20260503003538 | 72 | 271 | 6.0 | 11.0 | 0.00 | 0.00 | 0.00 | 23 | 1015.6 |
| 20260503003053 | 72 | 284 | 7.0 | 11.0 | 0.00 | 0.00 | 0.00 | 23 | 1015.6 |
| 20260503002538 | 73 | 322 | 7.0 | 9.0 | 0.00 | 0.00 | 0.00 | 23 | 1015.6 |
| 20260503002038 | 73 | 279 | 4.0 | 8.0 | 0.00 | 0.00 | 0.00 | 22 | 1015.6 |
| 20260503001601 | 73 | 310 | 5.0 | 8.0 | 0.00 | 0.00 | 0.00 | 23 | 1015.7 |
| 20260503001041 | 73 | 267 | 3.0 | 8.0 | 0.00 | 0.00 | 0.00 | 23 | 1015.6 |
| 20260503000538 | 73 | 324 | 3.0 | 8.0 | 0.00 | 0.00 | 0.00 | 22 | 1015.7 |
| 20260503000100 | 73 | 243 | 3.0 | 9.0 | 0.00 | 0.00 | 0.00 | 22 | 1015.6 |
| 20260502235537 | 73 | 292 | 4.0 | 9.0 | 0.00 | 0.00 | 0.00 | 23 | 1015.7 |
| 20260502235039 | 73 | 256 | 5.0 | 10.0 | 0.00 | 0.00 | 0.00 | 22 | 1015.7 |
| 20260502234557 | 73 | 302 | 4.0 | 11.0 | 0.00 | 0.00 | 0.00 | 23 | 1015.7 |
| 20260502234039 | 74 | 247 | 6.0 | 11.0 | 0.00 | 0.00 | 0.00 | 22 | 1015.8 |
| 20260502233539 | 74 | 300 | 5.0 | 9.0 | 0.00 | 0.00 | 0.00 | 24 | 1015.7 |
| 20260502233049 | 74 | 309 | 3.0 | 14.0 | 0.00 | 0.00 | 0.00 | 24 | 1015.8 |
| 20260502232538 | 74 | 254 | 9.0 | 14.0 | 0.00 | 0.00 | 0.00 | 23 | 1015.8 |
| 20260502232038 | 74 | 279 | 4.0 | 11.0 | 0.00 | 0.00 | 0.00 | 23 | 1015.9 |
| 20260502231555 | 74 | 235 | 5.0 | 11.0 | 0.00 | 0.00 | 0.00 | 24 | 1015.9 |
| 20260502231038 | 74 | 265 | 7.0 | 11.0 | 0.00 | 0.00 | 0.00 | 23 | 1016.0 |
| 20260502230539 | 74 | 237 | 6.0 | 12.0 | 0.00 | 0.00 | 0.00 | 23 | 1016.0 |
| 20260502230044 | 73 | 238 | 3.0 | 12.0 | 0.00 | 0.00 | 0.00 | 24 | 1016.2 |
| 20260502225538 | 73 | 297 | 4.0 | 12.0 | 0.00 | 0.00 | 0.00 | 24 | 1016.2 |
| 20260502225038 | 73 | 297 | 5.0 | 9.0 | 0.00 | 0.00 | 0.00 | 25 | 1016.2 |
| 20260502224552 | 73 | 0 | 3.0 | 9.0 | 0.00 | 0.00 | 0.00 | 26 | 1016.4 |
| 20260502224038 | 74 | 24 | 5.0 | 11.0 | 0.00 | 0.00 | 0.00 | 25 | 1016.4 |
| 20260502223538 | 74 | 326 | 3.0 | 11.0 | 0.00 | 0.00 | 0.00 | 24 | 1016.6 |
| 20260502223046 | 74 | 340 | 6.0 | 10.0 | 0.00 | 0.00 | 0.00 | 24 | 1016.6 |
| 20260502222538 | 74 | 223 | 4.0 | 9.0 | 0.00 | 0.00 | 0.00 | 24 | 1016.7 |
| 20260502222035 | 74 | 241 | 3.0 | 11.0 | 0.00 | 0.00 | 0.00 | 25 | 1016.8 |
| 20260502221546 | 74 | 165 | 5.0 | 11.0 | 0.00 | 0.00 | 0.00 | 25 | 1016.9 |
| 20260502221041 | 73 | 257 | 7.0 | 11.0 | 0.00 | 0.00 | 0.00 | 25 | 1017.0 |
| 20260502220539 | 73 | 303 | 3.0 | 14.0 | 0.00 | 0.00 | 0.00 | 25 | 1017.1 |
| 20260502220050 | 73 | 352 | 3.0 | 14.0 | 0.00 | 0.00 | 0.00 | 24 | 1017.1 |
| 20260502215539 | 73 | 291 | 9.0 | 14.0 | 0.00 | 0.00 | 0.00 | 24 | 1017.2 |
| 20260502215039 | 73 | 210 | 3.0 | 12.0 | 0.00 | 0.00 | 0.00 | 25 | 1017.3 |
| 20260502214550 | 73 | 292 | 8.0 | 12.0 | 0.00 | 0.00 | 0.00 | 24 | 1017.4 |
| 20260502214038 | 73 | 300 | 7.0 | 12.0 | 0.00 | 0.00 | 0.00 | 24 | 1017.5 |
| 20260502213535 | 73 | 291 | 1.0 | 13.0 | 0.00 | 0.00 | 0.00 | 25 | 1017.5 |
| 20260502213051 | 73 | 227 | 5.0 | 13.0 | 0.00 | 0.00 | 0.00 | 26 | 1017.6 |
| 20260502212538 | 73 | 248 | 8.0 | 13.0 | 0.00 | 0.00 | 0.00 | 25 | 1017.7 |
| 20260502212038 | 73 | 275 | 5.0 | 15.0 | 0.00 | 0.00 | 0.00 | 25 | 1017.7 |
| 20260502211549 | 73 | 294 | 5.0 | 15.0 | 0.00 | 0.00 | 0.00 | 25 | 1017.8 |
| 20260502211035 | 73 | 327 | 7.0 | 15.0 | 0.00 | 0.00 | 0.00 | 26 | 1017.9 |
| 20260502210535 | 73 | 277 | 9.0 | 14.0 | 0.00 | 0.00 | 0.00 | 25 | 1017.9 |
| 20260502210056 | 73 | 213 | 5.0 | 15.0 | 0.00 | 0.00 | 0.00 | 28 | 1017.9 |
| 20260502205538 | 73 | 302 | 6.0 | 15.0 | 0.00 | 0.00 | 0.00 | 28 | 1018.0 |
| 20260502205041 | 73 | 202 | 8.0 | 15.0 | 0.00 | 0.00 | 0.00 | 26 | 1018.1 |
| 20260502204551 | 73 | 295 | 6.0 | 12.0 | 0.00 | 0.00 | 0.00 | 27 | 1018.0 |
| 20260502204039 | 73 | 275 | 6.0 | 12.0 | 0.00 | 0.00 | 0.00 | 27 | 1018.1 |
| 20260502203539 | 72 | 355 | 4.0 | 12.0 | 0.00 | 0.00 | 0.00 | 28 | 1018.2 |
| 20260502203044 | 72 | 278 | 6.0 | 11.0 | 0.00 | 0.00 | 0.00 | 26 | 1018.3 |
| 20260502202539 | 73 | 277 | 1.0 | 14.0 | 0.00 | 0.00 | 0.00 | 24 | 1018.4 |
| 20260502202041 | 73 | 227 | 4.0 | 14.0 | 0.00 | 0.00 | 0.00 | 24 | 1018.5 |
| 20260502201555 | 73 | 258 | 8.0 | 14.0 | 0.00 | 0.00 | 0.00 | 24 | 1018.5 |
| 20260502201038 | 73 | 233 | 5.0 | 11.0 | 0.00 | 0.00 | 0.00 | 25 | 1018.5 |
| 20260502200538 | 73 | 184 | 6.0 | 11.0 | 0.00 | 0.00 | 0.00 | 25 | 1018.6 |
| 20260502200056 | 73 | 185 | 7.0 | 12.0 | 0.00 | 0.00 | 0.00 | 24 | 1018.7 |
| 20260502195539 | 73 | 280 | 5.0 | 12.0 | 0.00 | 0.00 | 0.00 | 24 | 1018.7 |
| 20260502195044 | 73 | 261 | 4.0 | 12.0 | 0.00 | 0.00 | 0.00 | 26 | 1018.7 |
| 20260502194550 | 73 | 228 | 3.0 | 12.0 | 0.00 | 0.00 | 0.00 | 25 | 1018.8 |
| 20260502194040 | 72 | 219 | 6.0 | 12.0 | 0.00 | 0.00 | 0.00 | 23 | 1018.9 |
| 20260502193539 | 72 | 191 | 6.0 | 10.0 | 0.00 | 0.00 | 0.00 | 24 | 1018.9 |
| 20260502193050 | 72 | 259 | 4.0 | 9.0 | 0.00 | 0.00 | 0.00 | 24 | 1019.0 |
| 20260502192544 | 71 | 0 | 3.0 | 9.0 | 0.00 | 0.00 | 0.00 | 25 | 1019.2 |
| 20260502192041 | 71 | 232 | 2.0 | 9.0 | 0.00 | 0.00 | 0.00 | 25 | 1019.3 |
| 20260502191557 | 71 | 266 | 4.0 | 9.0 | 0.00 | 0.00 | 0.00 | 24 | 1019.3 |
| 20260502191038 | 71 | 257 | 3.0 | 10.0 | 0.00 | 0.00 | 0.00 | 24 | 1019.4 |
| 20260502190538 | 71 | 300 | 6.0 | 10.0 | 0.00 | 0.00 | 0.00 | 25 | 1019.5 |
| 20260502190104 | 71 | 256 | 5.0 | 10.0 | 0.00 | 0.00 | 0.00 | 25 | 1019.6 |
| 20260502185540 | 71 | 227 | 1.0 | 10.0 | 0.00 | 0.00 | 0.00 | 25 | 1019.6 |
| 20260502185040 | 71 | 259 | 4.0 | 10.0 | 0.00 | 0.00 | 0.00 | 24 | 1019.7 |
| 20260502184557 | 71 | 231 | 5.0 | 10.0 | 0.00 | 0.00 | 0.00 | 25 | 1019.8 |
| 20260502184040 | 71 | 188 | 5.0 | 10.0 | 0.00 | 0.00 | 0.00 | 28 | 1019.9 |
| 20260502183540 | 71 | 161 | 6.0 | 10.0 | 0.00 | 0.00 | 0.00 | 26 | 1019.9 |
| 20260502183049 | 71 | 203 | 4.0 | 10.0 | 0.00 | 0.00 | 0.00 | 26 | 1019.9 |
| 20260502182537 | 71 | 193 | 5.0 | 10.0 | 0.00 | 0.00 | 0.00 | 29 | 1020.0 |
| 20260502182039 | 71 | 226 | 6.0 | 10.0 | 0.00 | 0.00 | 0.00 | 29 | 1020.1 |
| 20260502181549 | 71 | 214 | 3.0 | 10.0 | 0.00 | 0.00 | 0.00 | 28 | 1020.1 |
| 20260502181040 | 71 | 215 | 4.0 | 10.0 | 0.00 | 0.00 | 0.00 | 27 | 1020.1 |
| 20260502180539 | 70 | 205 | 4.0 | 10.0 | 0.00 | 0.00 | 0.00 | 26 | 1020.2 |
| 20260502180119 | 70 | 190 | 3.0 | 7.0 | 0.00 | 0.00 | 0.00 | 25 | 1020.2 |
| 20260502164039 | 65 | 200 | 2.0 | 7.0 | 0.00 | 0.00 | 0.00 | 33 | 1020.3 |
| 20260502163539 | 64 | 211 | 2.0 | 7.0 | 0.00 | 0.00 | 0.00 | 33 | 1020.3 |
| 20260502163052 | 64 | 240 | 3.0 | 7.0 | 0.00 | 0.00 | 0.00 | 35 | 1020.4 |
| 20260502162539 | 63 | 151 | 1.0 | 5.0 | 0.00 | 0.00 | 0.00 | 35 | 1020.4 |
| 20260502162039 | 63 | 154 | 2.0 | 5.0 | 0.00 | 0.00 | 0.00 | 35 | 1020.4 |
| 20260502161548 | 62 | 197 | 2.0 | 4.0 | 0.00 | 0.00 | 0.00 | 37 | 1020.4 |
| 20260502161039 | 62 | 253 | 0.0 | 4.0 | 0.00 | 0.00 | 0.00 | 36 | 1020.3 |
| 20260502160541 | 61 | 254 | 2.0 | 4.0 | 0.00 | 0.00 | 0.00 | 37 | 1020.3 |
| 20260502152044 | 58 | 219 | 0.0 | 3.0 | 0.00 | 0.00 | 0.00 | 40 | 1020.4 |
| 20260502151600 | 57 | 223 | 1.0 | 3.0 | 0.00 | 0.00 | 0.00 | 42 | 1020.5 |
| 20260502151040 | 57 | 0 | 0.0 | 3.0 | 0.00 | 0.00 | 0.00 | 43 | 1020.4 |
| 20260502150539 | 57 | 233 | 1.0 | 3.0 | 0.00 | 0.00 | 0.00 | 44 | 1020.4 |
| 20260502130541 | 37 | 360 | 1.0 | 2.0 | 0.00 | 0.00 | 0.00 | 70 | 1020.1 |
| 20260502123540 | 38 | 55 | 1.0 | 3.0 | 0.00 | 0.00 | 0.00 | 69 | 1020.0 |
| 20260502123053 | 38 | 55 | 0.0 | 2.0 | 0.00 | 0.00 | 0.00 | 69 | 1020.0 |
| 20260502122540 | 38 | 0 | 0.0 | 0.0 | 0.00 | 0.00 | 0.00 | 69 | 1020.0 |
| 20260502122039 | 38 | 0 | 0.0 | 1.0 | 0.00 | 0.00 | 0.00 | 69 | 1020.0 |
| 20260502121603 | 38 | 0 | 0.0 | 2.0 | 0.00 | 0.00 | 0.00 | 69 | 1019.9 |
| 20260502121042 | 38 | 0 | 0.0 | 2.0 | 0.00 | 0.00 | 0.00 | 69 | 1019.9 |
| 20260502120540 | 38 | 55 | 1.0 | 3.0 | 0.00 | 0.00 | 0.00 | 69 | 1019.9 |
| 20260502115542 | 38 | 55 | 1.0 | 4.0 | 0.00 | 0.00 | 0.00 | 69 | 1019.9 |
| 20260502115040 | 38 | 55 | 1.0 | 6.0 | 0.00 | 0.00 | 0.00 | 68 | 1019.9 |
| 20260502114550 | 38 | 55 | 2.0 | 6.0 | 0.00 | 0.00 | 0.00 | 68 | 1019.9 |
| 20260502114040 | 39 | 50 | 4.0 | 6.0 | 0.00 | 0.00 | 0.00 | 68 | 1019.8 |
| 20260502113540 | 39 | 61 | 2.0 | 4.0 | 0.00 | 0.00 | 0.00 | 68 | 1019.9 |
| 20260502113049 | 39 | 90 | 2.0 | 5.0 | 0.00 | 0.00 | 0.00 | 67 | 1020.1 |
| 20260502112539 | 39 | 137 | 2.0 | 5.0 | 0.00 | 0.00 | 0.00 | 67 | 1019.9 |
| 20260502112039 | 39 | 155 | 2.0 | 5.0 | 0.00 | 0.00 | 0.00 | 67 | 1020.1 |
| 20260502111558 | 40 | 166 | 2.0 | 5.0 | 0.00 | 0.00 | 0.00 | 67 | 1020.0 |
| 20260502111041 | 40 | 0 | 1.0 | 3.0 | 0.00 | 0.00 | 0.00 | 67 | 1020.0 |
| 20260502110539 | 40 | 50 | 1.0 | 3.0 | 0.00 | 0.00 | 0.00 | 67 | 1019.9 |
| 20260502110053 | 40 | 50 | 1.0 | 3.0 | 0.00 | 0.00 | 0.00 | 67 | 1019.9 |
| 20260502105541 | 41 | 50 | 0.0 | 3.0 | 0.00 | 0.00 | 0.00 | 67 | 1019.9 |
| 20260502105040 | 41 | 355 | 1.0 | 3.0 | 0.00 | 0.00 | 0.00 | 66 | 1020.0 |
| 20260502104548 | 41 | 355 | 1.0 | 3.0 | 0.00 | 0.00 | 0.00 | 67 | 1020.0 |
| 20260502104041 | 42 | 355 | 1.0 | 3.0 | 0.00 | 0.00 | 0.00 | 67 | 1019.9 |
| 20260502103541 | 42 | 355 | 1.0 | 4.0 | 0.00 | 0.00 | 0.00 | 67 | 1020.0 |
| 20260502103053 | 42 | 0 | 1.0 | 4.0 | 0.00 | 0.00 | 0.00 | 67 | 1020.0 |
| 20260502102541 | 42 | 355 | 2.0 | 4.0 | 0.00 | 0.00 | 0.00 | 67 | 1020.0 |
| 20260502102040 | 42 | 360 | 2.0 | 6.0 | 0.00 | 0.00 | 0.00 | 67 | 1020.0 |
| 20260502101605 | 42 | 360 | 2.0 | 6.0 | 0.00 | 0.00 | 0.00 | 68 | 1019.9 |
| 20260502101039 | 42 | 360 | 3.0 | 6.0 | 0.00 | 0.00 | 0.00 | 68 | 1019.8 |
| 20260502100539 | 42 | 360 | 1.0 | 6.0 | 0.00 | 0.00 | 0.00 | 68 | 1019.8 |
| 20260502100108 | 42 | 360 | 3.0 | 6.0 | 0.00 | 0.00 | 0.00 | 68 | 1019.9 |
| 20260502091040 | 40 | 360 | 4.0 | 5.0 | 0.00 | 0.00 | 0.00 | 67 | 1019.9 |
| 20260502090539 | 40 | 360 | 3.0 | 5.0 | 0.00 | 0.00 | 0.00 | 66 | 1019.9 |
| 20260502080104 | 42 | 360 | 1.0 | 6.0 | 0.00 | 0.00 | 0.00 | 64 | 1019.8 |
| 20260502071039 | 43 | 0 | 1.0 | 4.0 | 0.00 | 0.00 | 0.00 | 64 | 1019.5 |
| 20260502070539 | 43 | 38 | 1.0 | 4.0 | 0.00 | 0.00 | 0.00 | 64 | 1019.4 |
| 20260502070046 | 43 | 38 | 2.0 | 4.0 | 0.00 | 0.00 | 0.00 | 64 | 1019.5 |
| 20260502065540 | 43 | 42 | 3.0 | 4.0 | 0.00 | 0.00 | 0.00 | 63 | 1019.6 |
| 20260502065039 | 43 | 59 | 3.0 | 5.0 | 0.00 | 0.00 | 0.00 | 63 | 1019.6 |
| 20260502064551 | 43 | 67 | 3.0 | 5.0 | 0.00 | 0.00 | 0.00 | 63 | 1019.6 |
| 20260502064039 | 43 | 65 | 3.0 | 5.0 | 0.00 | 0.00 | 0.00 | 62 | 1019.6 |
| 20260502063539 | 43 | 64 | 2.0 | 4.0 | 0.00 | 0.00 | 0.00 | 62 | 1019.6 |
| 20260502063047 | 44 | 72 | 2.0 | 4.0 | 0.00 | 0.00 | 0.00 | 62 | 1019.6 |
| 20260502062539 | 44 | 89 | 2.0 | 4.0 | 0.00 | 0.00 | 0.00 | 61 | 1019.7 |
| 20260502062038 | 44 | 136 | 1.0 | 3.0 | 0.00 | 0.00 | 0.00 | 61 | 1019.7 |
| 20260502061548 | 44 | 136 | 2.0 | 4.0 | 0.00 | 0.00 | 0.00 | 61 | 1019.7 |
| 20260502061038 | 45 | 138 | 2.0 | 4.0 | 0.00 | 0.00 | 0.00 | 60 | 1019.6 |
| 20260502060539 | 45 | 147 | 1.0 | 3.0 | 0.00 | 0.00 | 0.00 | 60 | 1019.7 |
| 20260502060108 | 45 | 63 | 0.0 | 3.0 | 0.00 | 0.00 | 0.00 | 60 | 1019.6 |
| 20260502055540 | 45 | 360 | 0.0 | 3.0 | 0.00 | 0.00 | 0.00 | 60 | 1019.6 |
| 20260502055040 | 46 | 0 | 0.0 | 3.0 | 0.00 | 0.00 | 0.00 | 60 | 1019.6 |
| 20260502054544 | 46 | 63 | 2.0 | 4.0 | 0.00 | 0.00 | 0.00 | 59 | 1019.4 |
| 20260502054039 | 46 | 63 | 2.0 | 4.0 | 0.00 | 0.00 | 0.00 | 59 | 1019.3 |
| 20260502053540 | 46 | 66 | 2.0 | 4.0 | 0.00 | 0.00 | 0.00 | 59 | 1019.5 |
| 20260502053059 | 47 | 66 | 2.0 | 3.0 | 0.00 | 0.00 | 0.00 | 58 | 1019.4 |
| 20260502052539 | 47 | 67 | 1.0 | 3.0 | 0.00 | 0.00 | 0.00 | 58 | 1019.5 |
| 20260502052039 | 47 | 360 | 1.0 | 3.0 | 0.00 | 0.00 | 0.00 | 58 | 1019.4 |
| 20260502051558 | 48 | 360 | 2.0 | 3.0 | 0.00 | 0.00 | 0.00 | 57 | 1019.4 |
| 20260502051040 | 48 | 67 | 2.0 | 5.0 | 0.00 | 0.00 | 0.00 | 57 | 1019.4 |
| 20260502050542 | 48 | 66 | 2.0 | 5.0 | 0.00 | 0.00 | 0.00 | 56 | 1019.4 |
| 20260502050057 | 49 | 69 | 2.0 | 4.0 | 0.00 | 0.00 | 0.00 | 56 | 1019.4 |
| 20260502045541 | 49 | 66 | 2.0 | 4.0 | 0.00 | 0.00 | 0.00 | 56 | 1019.4 |
| 20260502045040 | 49 | 78 | 2.0 | 4.0 | 0.00 | 0.00 | 0.00 | 55 | 1019.3 |
| 20260502044549 | 49 | 78 | 2.0 | 3.0 | 0.00 | 0.00 | 0.00 | 55 | 1019.3 |
| 20260502044039 | 50 | 78 | 2.0 | 3.0 | 0.00 | 0.00 | 0.00 | 55 | 1019.3 |
| 20260502043539 | 50 | 78 | 0.0 | 3.0 | 0.00 | 0.00 | 0.00 | 54 | 1019.3 |
| 20260502043110 | 50 | 78 | 0.0 | 6.0 | 0.00 | 0.00 | 0.00 | 54 | 1019.3 |
| 20260502042542 | 50 | 78 | 1.0 | 6.0 | 0.00 | 0.00 | 0.00 | 54 | 1019.3 |
| 20260502042038 | 50 | 78 | 2.0 | 6.0 | 0.00 | 0.00 | 0.00 | 54 | 1019.2 |
| 20260502041552 | 50 | 93 | 3.0 | 6.0 | 0.00 | 0.00 | 0.00 | 54 | 1019.3 |